Tracking 29932 objects as of 4-Dec-2024
HD Live streaming from Space Station
objects crossing your sky now

STARLINK-31713

Track STARLINK-31713 now!
10-day predictions
STARLINK-31713 is classified as:


NORAD ID: 59381
Int'l Code: 2024-062H
Perigee: 481.6 km
Apogee: 483.1 km
Inclination: 53.2 °
Period: 94.1 minutes
Semi major axis: 6853 km
RCS: Unknown
Launch date: April 2, 2024
Source: United States (US)
Launch site: AIR FORCE WESTERN TEST RANGE (AFWTR)
Your satellite tracking list
Your tracking list is empty




NASA's NSSDC Master Catalog

Two Line Element Set (TLE):
1 59381U 24062H   24338.43787657 -.00000298  00000-0  20675-5 0  9992
2 59381  53.1676 240.8387 0001118  72.5222 287.5901 15.30194211 38975
Source of the keplerian elements: AFSPC